Location: Rometta
(44.2000°N, 10.0500°E)
Time: 22:55:00
(UTC+00:00)

ERS-2 - Pass Details

Date: 20 January 2021
Orbit: 492 x 497 km, 98.6° (Epoch: 04 March)

Event Time Altitude Azimuth Distance (km) Brightness Sun altitude
Exits shadow 17:41:32 14° 20° (NNE) 1,471 4.2 -15.6°
Maximum altitude 17:44:38 70° 103° (ESE) 529 2.0 -16.1°
Drops below altitude 10° 17:48:14 10° 188° (S) 1,681 5.0 -16.8°
Sets 17:50:18 0° 190° (S) 2,558 6.0 -17.1°
